Leakey, Texas, United States (78873)
Lat: 29.73N, Lon: 99.76W
Wx Zone: TXZ185
Local Info
Past Weather Observations for Friday, September 12, 2014

NOTE: This archive is for the closest National Weather Service station to Leakey. Information may differ from the station used for current weather conditions.

Click here for Long-term Archive

Time Weather Temperature Dewpoint Humidity Pressure Winds Precip Visibility
23:50
Overcast
Fog And Mist
59°F / 15°C 57°F / 14°C 94% 30.21 in
(1023 mb)
NNE 16.1 mph
(NNE 26 kph)
- 5SM
23:30
Overcast
59°F / 15°C 57°F / 14°C 94% 30.21 in
(1023 mb)
NNE 15 mph
(NNE 24 kph)
- 10SM
23:10
Overcast
61°F / 16°C 57°F / 14°C 88% 30.21 in
(1023 mb)
NE 11.5 mph
(NE 19 kph)
- 10SM
22:50
Overcast
61°F / 16°C 57°F / 14°C 88% 30.21 in
(1023 mb)
NNE 15 mph
(NNE 24 kph)
- 10SM
22:30
Overcast
61°F / 16°C 59°F / 15°C 94% 30.18 in
(1022 mb)
NE 12.7 mph
(NE 20 kph)
- 10SM
22:10
Overcast
61°F / 16°C 59°F / 15°C 94% 30.18 in
(1022 mb)
NNE 13.8 mph
(NNE 22 kph)
- 10SM
21:50
Overcast
61°F / 16°C 59°F / 15°C 94% 30.18 in
(1022 mb)
NE 18.4 mph
(NE 30 kph)
- 10SM
21:30
Overcast
63°F / 17°C 61°F / 16°C 94% 30.18 in
(1022 mb)
NNE 19.6 mph
(NNE 32 kph)
- 10SM
21:10
Overcast
63°F / 17°C 61°F / 16°C 94% 30.18 in
(1022 mb)
NNE 12.7 mph
(NNE 20 kph)
- 10SM
20:50
Overcast
Light Rain
63°F / 17°C 61°F / 16°C 94% 30.18 in
(1022 mb)
NE 12.7 mph
(NE 20 kph)
0.05 in
(1.27 mm)
8SM
20:30
Overcast
Heavy Rain
64°F / 18°C 61°F / 16°C 88% 30.18 in
(1022 mb)
NNE 12.7 mph
(NNE 20 kph)
0.03 in
(0.76 mm)
5SM
20:10
Overcast
Light Rain
64°F / 18°C 63°F / 17°C 94% 30.18 in
(1022 mb)
NE 12.7 mph
(NE 20 kph)
- 10SM
19:50
Overcast
66°F / 19°C 63°F / 17°C 88% 30.18 in
(1022 mb)
NE 11.5 mph
(NE 19 kph)
0.01 in
(0.25 mm)
10SM
19:30
Overcast
Light Rain
66°F / 19°C 63°F / 17°C 88% 30.15 in
(1021 mb)
NE 12.7 mph
(NE 20 kph)
0.01 in
(0.25 mm)
9SM
19:10
Overcast
Rain
70°F / 21°C 63°F / 17°C 78% 30.12 in
(1020 mb)
NE 12.7 mph
(NE 20 kph)
- 9SM
18:50
Overcast
Light Rain
72°F / 22°C 64°F / 18°C 78% 30.12 in
(1020 mb)
NNE 13.8 mph
(NNE 22 kph)
- 10SM
18:30
Overcast
73°F / 23°C 64°F / 18°C 74% 30.12 in
(1020 mb)
NE 16.1 mph
(NE 26 kph)
- 10SM
18:10
Partly Cloudy
75°F / 24°C 64°F / 18°C 69% 30.12 in
(1020 mb)
NE 16.1 mph
(NE 26 kph)
- 10SM
17:50
Partly Cloudy
Thunder Storms
77°F / 25°C 66°F / 19°C 69% 30.09 in
(1019 mb)
NNE 13.8 mph
(NNE 22 kph)
- 10SM
17:30
Partly Cloudy
77°F / 25°C 66°F / 19°C 69% 30.06 in
(1018 mb)
NE 12.7 mph
(NE 20 kph)
- 10SM
17:10
Mostly Cloudy
79°F / 26°C 66°F / 19°C 65% 30.06 in
(1018 mb)
NE 12.7 mph
(NE 20 kph)
- 10SM
16:50
Mostly Cloudy
81°F / 27°C 66°F / 19°C 62% 30.06 in
(1018 mb)
NNE 11.5 mph
(NNE 19 kph)
- 10SM
16:30
Mostly Cloudy
82°F / 28°C 66°F / 19°C 58% 30.06 in
(1018 mb)
NE 13.8 mph
(NE 22 kph)
- 10SM
16:10
Mostly Cloudy
82°F / 28°C 66°F / 19°C 58% 30.06 in
(1018 mb)
NE 13.8 mph
(NE 22 kph)
- 10SM
15:50
Partly Cloudy
82°F / 28°C 66°F / 19°C 58% 30.06 in
(1018 mb)
NE 13.8 mph
(NE 22 kph)
- 10SM
15:30
Clear
84°F / 29°C 66°F / 19°C 55% 30.04 in
(1017 mb)
NE 12.7 mph
(NE 20 kph)
- 10SM
15:10
Partly Cloudy
84°F / 29°C 66°F / 19°C 55% 30.04 in
(1017 mb)
NE 16.1 mph
(NE 26 kph)
- 10SM
14:50
Partly Cloudy
82°F / 28°C 68°F / 20°C 62% 30.06 in
(1018 mb)
NE 15 mph
(NE 24 kph)
- 10SM
14:30
Partly Cloudy
86°F / 30°C 68°F / 20°C 55% 30.06 in
(1018 mb)
NE 11.5 mph
(NE 19 kph)
- 10SM
14:10
Clear
84°F / 29°C 68°F / 20°C 58% 30.06 in
(1018 mb)
NE 12.7 mph
(NE 20 kph)
- 10SM
13:50
Clear
88°F / 31°C 66°F / 19°C 49% 30.06 in
(1018 mb)
NE 12.7 mph
(NE 20 kph)
- 10SM
13:30
Partly Cloudy
86°F / 30°C 64°F / 18°C 49% 30.06 in
(1018 mb)
NE 8.1 mph
(NE 13 kph)
- 10SM
13:10
Partly Cloudy
84°F / 29°C 64°F / 18°C 51% 30.06 in
(1018 mb)
N 5.8 mph
(N 9 kph)
- 10SM
12:50
Partly Cloudy
84°F / 29°C 63°F / 17°C 48% 30.09 in
(1019 mb)
NE 8.1 mph
(NE 13 kph)
- 10SM
12:30
Partly Cloudy
88°F / 31°C 63°F / 17°C 43% 30.09 in
(1019 mb)
NE 4.6 mph
(NE 7 kph)
- 10SM
12:10
Mostly Cloudy
88°F / 31°C 63°F / 17°C 43% 30.09 in
(1019 mb)
NE 6.9 mph
(NE 11 kph)
- 10SM
11:50
Partly Cloudy
84°F / 29°C 63°F / 17°C 48% 30.09 in
(1019 mb)
NE 3.5 mph
(NE 6 kph)
- 10SM
11:30
Partly Cloudy
86°F / 30°C 63°F / 17°C 46% 30.09 in
(1019 mb)
ENE 5.8 mph
(ENE 9 kph)
- 10SM
11:10
Mostly Cloudy
84°F / 29°C 64°F / 18°C 51% 30.12 in
(1020 mb)
Calm - 10SM
10:50
Partly Cloudy
84°F / 29°C 66°F / 19°C 55% 30.12 in
(1020 mb)
Calm - 10SM
10:30
Partly Cloudy
84°F / 29°C 64°F / 18°C 51% 30.12 in
(1020 mb)
NE 4.6 mph
(NE 7 kph)
- 10SM
10:10
Clear
82°F / 28°C 66°F / 19°C 58% 30.12 in
(1020 mb)
Calm - 10SM
09:50
Clear
82°F / 28°C 66°F / 19°C 58% 30.12 in
(1020 mb)
SE 3.5 mph
(SE 6 kph)
- 10SM
09:30
Clear
81°F / 27°C 68°F / 20°C 66% 30.12 in
(1020 mb)
SE 4.6 mph
(SE 7 kph)
- 10SM
09:10
Partly Cloudy
81°F / 27°C 68°F / 20°C 66% 30.09 in
(1019 mb)
S 3.5 mph
(S 6 kph)
- 10SM
08:50
Partly Cloudy
79°F / 26°C 70°F / 21°C 74% 30.09 in
(1019 mb)
Calm - 10SM
08:30
Mostly Cloudy
79°F / 26°C 70°F / 21°C 74% 30.09 in
(1019 mb)
Calm - 10SM
08:10
Overcast
75°F / 24°C 70°F / 21°C 83% 30.09 in
(1019 mb)
Calm - 10SM
07:50
Mostly Cloudy
75°F / 24°C 70°F / 21°C 83% 30.09 in
(1019 mb)
SE 4.6 mph
(SE 7 kph)
- 10SM
07:30
Clear
75°F / 24°C 70°F / 21°C 83% 30.09 in
(1019 mb)
Calm - 10SM
07:10
Clear
73°F / 23°C 70°F / 21°C 89% 30.09 in
(1019 mb)
Calm - 9SM
06:50
Clear
72°F / 22°C 68°F / 20°C 88% 30.09 in
(1019 mb)
Calm - 10SM
06:30
Clear
70°F / 21°C 68°F / 20°C 94% 30.09 in
(1019 mb)
Calm - 10SM
06:10
Clear
70°F / 21°C 66°F / 19°C 88% 30.09 in
(1019 mb)
Calm - 10SM
05:50
Clear
72°F / 22°C 68°F / 20°C 88% 30.06 in
(1018 mb)
ESE 4.6 mph
(ESE 7 kph)
- 10SM
05:30
Clear
72°F / 22°C 68°F / 20°C 88% 30.06 in
(1018 mb)
Calm - 10SM
05:10
Clear
72°F / 22°C 68°F / 20°C 88% 30.06 in
(1018 mb)
Calm - 10SM
04:50
Clear
72°F / 22°C 66°F / 19°C 83% 30.06 in
(1018 mb)
Calm - 10SM
04:30
Clear
72°F / 22°C 66°F / 19°C 83% 30.06 in
(1018 mb)
Calm - 10SM
04:10
Clear
72°F / 22°C 66°F / 19°C 83% 30.06 in
(1018 mb)
Calm - 10SM
03:50
Clear
73°F / 23°C 66°F / 19°C 78% 30.06 in
(1018 mb)
Calm - 10SM
03:30
Clear
73°F / 23°C 66°F / 19°C 78% 30.06 in
(1018 mb)
SE 5.8 mph
(SE 9 kph)
- 10SM
03:10
Clear
73°F / 23°C 66°F / 19°C 78% 30.06 in
(1018 mb)
SE 6.9 mph
(SE 11 kph)
- 10SM
02:50
Clear
73°F / 23°C 66°F / 19°C 78% 30.06 in
(1018 mb)
Calm - 10SM
02:30
Clear
73°F / 23°C 66°F / 19°C 78% 30.06 in
(1018 mb)
Calm - 10SM
02:10
Clear
73°F / 23°C 66°F / 19°C 78% 30.06 in
(1018 mb)
SE 5.8 mph
(SE 9 kph)
- 10SM
01:50
Clear
73°F / 23°C 66°F / 19°C 78% 30.06 in
(1018 mb)
Calm - 10SM
01:30
Clear
73°F / 23°C 68°F / 20°C 83% 30.06 in
(1018 mb)
Calm - 10SM
01:10
Clear
73°F / 23°C 66°F / 19°C 78% 30.06 in
(1018 mb)
Calm - 10SM
00:50
Clear
73°F / 23°C 66°F / 19°C 78% 30.06 in
(1018 mb)
Calm - 10SM
00:30
Clear
73°F / 23°C 68°F / 20°C 83% 30.06 in
(1018 mb)
Calm - 10SM
00:10
Clear
73°F / 23°C 68°F / 20°C 83% 30.06 in
(1018 mb)
Calm - 10SM
Time Weather Temperature Dewpoint Humidity Pressure Winds Precip Visibility


Weather for websites

WeatherForYou.com, LLC is not responsible for any damages or problems caused by this service. Current weather conditions are obtained from the closest station including government and personal stations which may have varying degrees of accuracy. Weather forecasts are derived from the NOAA NDFD. Like all things, this site belongs to Jesus Christ... He just trusts me to maintain it. If you have any questions or comments email webmaster@weatherforyou.com

Copyright © 2014, WeatherForYou.com LLC. All rights reserved.